Leesburg, FL

12:34 PM EST on January 24, 2017 (GMT -0500)
Leesburg Regional

Weather History for KLEE - September, 2014

Change the Weather History Date:

Thursday, September 4, 2014

  Actual Average Record
Temperature  
Mean Temperature 84 °F -  
Max Temperature 91 °F 89 °F 97 °F (1968)
Min Temperature 77 °F 71 °F 64 °F (1978)
Cooling Degree Days 18    
Growing Degree Days 34 (Base 50)    
Moisture  
Dew Point 72 °F    
Average Humidity 74    
Maximum Humidity 90    
Minimum Humidity 50    
Precipitation  
Precipitation 0.00 in - - ()
Sea Level Pressure  
Sea Level Pressure 30.08 in    
Wind  
Wind Speed 5 mph (SE)    
Max Wind Speed 9 mph    
Max Gust Speed -    
Visibility 10 miles    
Events Thunderstorm    
Averages and records for this station are not official NWS values.
T = Trace of Precipitation, MM = Missing Value Source: NWS Daily Summary

Daily Weather History Graph

Daily Weather History Graph

Search for Another Location

Airport or City:

Trip Planner

Search our weather history database for the weather conditions in past years. The results will help you decide how hot, cold, wet, or windy it might be!

Date:

Astronomy

Sep. 04, 2014 Rise Set
Actual Time 7:06 AM EDT 7:45 PM EDT
Civil Twilight 6:42 AM EDT 8:09 PM EDT
Nautical Twilight 6:14 AM EDT 8:37 PM EDT
Astronomical Twilight 5:45 AM EDT 9:05 PM EDT
Moon 4:07 PM EDT (9/4) 2:11 AM EDT (9/4)
Length of Visible Light 13h 26m
Length of Day
12h 38m
Waxing Gibbous, 74% of the Moon is Illuminated
Sep 4
Waxing Gibbous
Sep 8
Full
Sep 15
Last Quarter
Sep 24
New
Oct 1
First Quarter

Hourly Weather History & Observations

Time (EDT) Temp. Heat Index Dew Point Humidity Pressure Visibility Wind Dir Wind Speed Gust Speed Precip Events Conditions
12:53 AM 80.1 °F 83.8 °F 72.0 °F 76% 30.08 in 10.0 mi SE 8.1 mph - N/A   Clear
1:53 AM 78.1 °F - 73.0 °F 84% 30.07 in 10.0 mi Calm Calm - N/A   Clear
2:53 AM 78.1 °F - 73.0 °F 84% 30.06 in 10.0 mi ESE 5.8 mph - N/A   Clear
3:53 AM 78.1 °F - 73.0 °F 84% 30.06 in 10.0 mi SE 5.8 mph - N/A   Clear
4:53 AM 78.1 °F - 73.0 °F 84% 30.05 in 10.0 mi SE 6.9 mph - N/A   Clear
5:53 AM 78.1 °F - 73.9 °F 87% 30.06 in 10.0 mi SE 4.6 mph - N/A   Clear
6:53 AM 77.0 °F - 73.9 °F 90% 30.07 in 10.0 mi Calm Calm - N/A   Clear
8:53 AM 81.0 °F 86.2 °F 73.9 °F 79% 30.09 in 10.0 mi SSE 4.6 mph - N/A   Clear
9:53 AM 82.0 °F 87.9 °F 73.9 °F 76% 30.09 in 10.0 mi Variable 4.6 mph - N/A   Clear
10:53 AM 84.9 °F 91.4 °F 73.0 °F 67% 30.11 in 10.0 mi SSE 5.8 mph - N/A   Clear
11:53 AM 88.0 °F 93.8 °F 71.1 °F 57% 30.11 in 10.0 mi Variable 6.9 mph - N/A   Partly Cloudy
12:53 PM 87.1 °F 92.0 °F 70.0 °F 57% 30.09 in 10.0 mi ESE 4.6 mph - N/A   Mostly Cloudy
1:53 PM 88.0 °F 92.9 °F 70.0 °F 55% 30.09 in 10.0 mi East 4.6 mph - N/A   Overcast
2:53 PM 90.0 °F 94.5 °F 69.1 °F 50% 30.06 in 10.0 mi Variable 4.6 mph - N/A   Mostly Cloudy
3:53 PM 90.0 °F 94.5 °F 69.1 °F 50% 30.04 in 10.0 mi East 3.5 mph - N/A   Scattered Clouds
4:53 PM 82.0 °F 86.3 °F 71.1 °F 69% 30.05 in 10.0 mi ESE 9.2 mph - N/A Thunderstorm Scattered Clouds
5:30 PM 80.1 °F 83.8 °F 72.0 °F 76% 30.06 in 10.0 mi SE 5.8 mph - N/A   Mostly Cloudy
5:44 PM 81.0 °F 85.2 °F 72.0 °F 74% 30.06 in 10.0 mi ESE 4.6 mph - N/A Thunderstorm Partly Cloudy
5:53 PM 82.0 °F 86.7 °F 72.0 °F 71% 30.07 in 10.0 mi Calm Calm - N/A   Clear
6:53 PM 82.0 °F 86.7 °F 72.0 °F 71% 30.07 in 10.0 mi Calm Calm - N/A   Clear
7:53 PM 79.0 °F - 73.9 °F 84% 30.08 in 10.0 mi SSW 5.8 mph - N/A   Scattered Clouds
8:53 PM 79.0 °F - 73.9 °F 84% 30.10 in 10.0 mi SSW 5.8 mph - N/A   Clear
9:53 PM 79.0 °F - 73.0 °F 82% 30.11 in 10.0 mi SSE 6.9 mph - N/A   Clear
10:53 PM 78.1 °F - 72.0 °F 81% 30.12 in 10.0 mi SE 6.9 mph - N/A   Partly Cloudy
11:53 PM 78.1 °F - 73.0 °F 84% 30.13 in 10.0 mi SE 5.8 mph - N/A   Clear